FW8396 Weather Reports


Display with metric or nautical units.
time (UTC)temp
F
wind
direction
speed
MPH
gust
MPH
rain 1hr
in
rain 24hr
in
rain mn
in
humidity
%
barometer
mb
20260906081538 83 0 0.0 0.0 0.00 0.34 0.00 83 1013.9
20260906080040 83 0 0.0 2.0 0.00 0.34 0.00 83 1014.0
20260906074535 83 0 0.0 2.0 0.00 0.34 0.00 83 1014.1
20260906073041 83 0 0.0 3.0 0.00 0.34 0.00 83 1014.3
20260906071534 83 0 0.0 2.0 0.00 0.34 0.00 83 1014.3
20260906070035 83 0 0.0 4.0 0.00 0.34 0.00 83 1014.3
20260906064534 84 162 0.0 4.0 0.00 0.34 0.00 82 1014.3
20260906063036 84 157 1.0 4.0 0.00 0.34 0.00 82 1014.3
20260906061535 84 0 0.0 3.0 0.00 0.34 0.00 82 1014.4
20260906060035 84 161 0.0 3.0 0.00 0.34 0.00 82 1014.5
20260906054539 84 0 0.0 4.0 0.00 0.34 0.00 83 1014.3
20260906053039 84 0 0.0 4.0 0.00 0.34 0.00 83 1014.3
20260906051548 84 142 0.0 3.0 0.00 0.34 0.00 83 1014.5
20260906050036 84 0 0.0 6.0 0.00 0.34 0.00 83 1014.5
20260906044533 84 0 0.0 3.0 0.00 0.34 0.34 83 1014.6
20260906043035 84 134 0.0 5.0 0.00 0.34 0.34 84 1014.5
20260906041534 84 0 0.0 4.0 0.00 0.34 0.34 83 1014.6
20260906040037 84 138 0.0 4.0 0.00 0.34 0.34 83 1014.5
20260906034536 84 170 0.0 3.0 0.00 0.34 0.34 84 1014.6
20260906033045 83 0 0.0 2.0 0.00 0.34 0.34 84 1014.4
20260906031539 83 0 0.0 3.0 0.00 0.34 0.34 84 1014.3
20260906030037 83 0 0.0 5.0 0.00 0.34 0.34 84 1014.3
20260906024546 83 107 1.0 4.0 0.00 0.34 0.34 84 1014.1
20260906023036 83 0 1.0 4.0 0.00 0.34 0.34 84 1013.8
20260906021536 83 109 0.0 5.0 0.00 0.34 0.34 84 1013.6
20260906020036 83 54 2.0 6.0 0.00 0.34 0.34 83 1013.6
20260906014551 83 65 1.0 6.0 0.00 0.34 0.34 83 1013.6
20260906013043 84 59 2.0 8.0 0.00 0.34 0.34 82 1013.5
20260906011535 86 0 1.0 5.0 0.00 0.34 0.34 79 1013.4
20260906010036 87 99 1.0 4.0 0.00 0.34 0.34 77 1013.4
20260906004534 87 115 1.0 7.0 0.00 0.34 0.34 76 1013.4
20260906003035 87 64 2.0 8.0 0.00 0.34 0.34 74 1013.3
20260906001534 88 86 1.0 6.0 0.00 0.34 0.34 72 1013.4
20260906000041 89 99 1.0 8.0 0.00 0.34 0.34 69 1013.5
20260905234537 89 107 2.0 4.0 0.00 0.34 0.34 66 1013.7
20260905233035 90 0 0.0 5.0 0.00 0.34 0.34 66 1013.7
20260905231534 90 0 1.0 6.0 0.00 0.34 0.34 66 1013.5
20260905230035 90 109 2.0 7.0 0.00 0.34 0.34 65 1013.5
20260905224535 90 114 2.0 7.0 0.00 0.34 0.34 65 1013.2
20260905223035 91 80 3.0 7.0 0.00 0.34 0.34 65 1013.1
20260905221542 91 58 1.0 7.0 0.00 0.34 0.34 65 1013.0
20260905220035 92 77 2.0 5.0 0.00 0.34 0.34 64 1013.0
20260905214534 92 92 1.0 4.0 0.00 0.34 0.34 63 1012.9
20260905213049 92 0 0.0 3.0 0.00 0.34 0.34 63 1012.9
20260905211540 93 90 1.0 3.0 0.00 0.34 0.34 63 1013.3
20260905210048 92 107 2.0 9.0 0.00 0.34 0.34 63 1013.1
20260905204543 93 104 1.0 5.0 0.00 0.34 0.34 64 1013.2
20260905203037 92 102 4.0 9.0 0.00 0.34 0.34 63 1013.4
20260905201533 93 111 1.0 4.0 0.00 0.34 0.34 65 1013.4
20260905200038 92 64 2.0 7.0 0.00 0.34 0.34 63 1013.7
20260905194534 92 96 2.0 7.0 0.00 0.34 0.34 68 1014.0
20260905193032 89 157 2.0 5.0 0.00 0.34 0.34 73 1014.0
20260905191533 88 0 0.0 6.0 0.00 0.34 0.34 76 1014.4
20260905190036 87 97 2.0 6.0 0.00 0.34 0.34 77 1014.5
20260905184543 86 73 4.0 10.0 0.00 0.34 0.34 77 1014.8
20260905183036 84 105 2.0 7.0 0.00 0.34 0.34 80 1014.8
20260905181537 84 96 0.0 4.0 0.12 0.34 0.34 85 1015.0
20260905180040 83 0 0.0 2.0 0.34 0.34 0.34 84 1015.2
20260905174534 82 0 0.0 3.0 0.34 0.34 0.34 86 1015.5
20260905173036 83 0 0.0 3.0 0.34 0.34 0.34 85 1015.8
20260905171534 87 129 3.0 8.0 0.20 0.20 0.20 78 1016.0
20260905170035 90 0 0.0 3.0 0.00 0.00 0.00 68 1015.6
20260905164534 91 0 0.0 4.0 0.00 0.00 0.00 68 1015.6
20260905163035 91 321 1.0 5.0 0.00 0.00 0.00 67 1015.6
20260905161544 91 0 0.0 4.0 0.00 0.00 0.00 66 1015.6
20260905160036 90 0 0.0 5.0 0.00 0.00 0.00 70 1015.8
20260905154539 89 0 0.0 1.0 0.00 0.00 0.00 72 1015.8
20260905153034 89 0 0.0 4.0 0.00 0.00 0.00 73 1015.8
20260905151535 89 0 0.0 1.0 0.00 0.00 0.00 73 1015.7
20260905150035 88 0 0.0 4.0 0.00 0.00 0.00 75 1015.7
20260905144536 88 0 0.0 4.0 0.00 0.00 0.00 77 1015.7
20260905143036 87 0 0.0 1.0 0.00 0.00 0.00 78 1015.8
20260905141536 87 0 0.0 2.0 0.00 0.00 0.00 81 1015.7
20260905140036 86 0 0.0 0.0 0.00 0.00 0.00 82 1015.6
20260905134539 85 0 0.0 0.0 0.00 0.00 0.00 82 1015.6
20260905133032 84 0 0.0 0.0 0.00 0.00 0.00 84 1015.5
20260905131535 82 0 0.0 0.0 0.00 0.00 0.00 87 1015.6
20260905130034 81 0 0.0 1.0 0.00 0.00 0.00 89 1015.7
20260905124535 80 0 0.0 2.0 0.00 0.00 0.00 90 1015.6
20260905123035 79 0 0.0 0.0 0.00 0.00 0.00 89 1015.5
20260905121537 79 0 0.0 0.0 0.00 0.00 0.00 89 1015.2
20260905120035 79 0 0.0 0.0 0.00 0.00 0.00 89 1015.1
20260905114535 79 0 0.0 0.0 0.00 0.00 0.00 89 1014.9
20260905113036 79 0 0.0 0.0 0.00 0.00 0.00 88 1014.7
20260905111543 80 0 0.0 0.0 0.00 0.00 0.00 88 1014.6
20260905110035 80 0 0.0 0.0 0.00 0.00 0.00 88 1014.6
20260905104535 80 0 0.0 0.0 0.00 0.00 0.00 88 1014.6
20260905103038 80 0 0.0 0.0 0.00 0.00 0.00 87 1014.6
20260905101536 80 0 0.0 0.0 0.00 0.00 0.00 87 1014.6
20260905100037 81 0 0.0 0.0 0.00 0.00 0.00 86 1014.5
20260905094536 81 0 0.0 0.0 0.00 0.00 0.00 87 1014.5
20260905093037 81 0 0.0 0.0 0.00 0.00 0.00 86 1014.7
20260905091537 81 0 0.0 0.0 0.00 0.00 0.00 86 1014.5
20260905090035 81 0 0.0 0.0 0.00 0.00 0.00 86 1014.7
20260905084546 82 0 0.0 2.0 0.00 0.05 0.00 86 1014.5
20260905083033 82 0 0.0 1.0 0.00 0.05 0.00 86 1014.2